SCP
0 0 0 0 0 0 0 0 0 0 0 0 0 0 0 0 0 0 0 0 0 0
0 0 0 0 0 0 0 0 0 0 0 0 0 0 0 0 0 0 0 0 0 0
0 0 0 0 0 0 0 0 0 0 0 0 0 0 0 0 0 0 0 0 0 0
0 0 0 0 0 0 0 0 0 0 0 0 0 0 0 0 0 0 0 0 0 0
-0 0 0 0 0 0 0 0 0 0 0 0 0 0 0 0 0 0 0 0 0 0
-0 -0 -0 0 0 0 0 0 0 0 0 0 0 0 0 0 0 0 0 0 0 0
0 0 0 0 0 0 0 0 0 0 0 0 0 0 0 0 0 0 0 0 0 0
0 0 0 0 0 0 0 0 0 0 0 0 0 0 0 0 0 0 0 0 0 0
0 0 0 0 -0 0 0 0 0 0 0 0 0 0 0 0 0 0 0 0 0 0
0 0 0 0 0 -0 -0 0 0 0 0 0 0 0 0 0 0 0 0 0 0 0
0 -0 0 0 0 0 0 0 0 0 0 0 0 0 0 0 0 0 0 0 0 0
-0 -0 -0 0 0 0 0 0 0 0 0 0 0 0 0 0 0 0 0 0 0 0
-0 -0 0 -0 0 0 0 0 0 0 0 0 0 0 0 0 0 0 0 0 0 0
-0 -0 -0 0 0 0 0 0 0 0 0 0 0 0 0 0 0 0 0 0 0 0
Wind_Speed_500mb
67 77 84 91 95 98 97 100 102 112 114 112 107 105 100 96 93 89 84 80 74 69
54 64 77 83 85 93 89 94 96 98 110 111 111 108 105 105 102 97 91 85 80 76
53 55 67 73 79 84 83 86 90 94 98 107 111 111 109 107 103 100 97 91 86 82
49 51 57 66 72 74 73 81 89 90 93 97 105 111 112 113 109 105 102 98 92 87
58 52 52 65 69 69 70 75 82 88 94 97 98 106 114 117 113 108 112 106 99 94
67 65 57 56 63 69 66 73 85 85 91 100 101 102 105 115 118 114 115 112 104 99
75 77 75 65 57 61 67 70 81 85 90 95 103 101 104 108 114 116 117 116 109 102
80 80 84 77 68 62 61 71 80 83 85 92 102 108 109 108 112 121 120 121 113 108
84 85 80 85 80 69 64 64 73 79 82 91 99 108 111 111 112 116 120 120 114 113
82 90 91 84 82 79 66 61 66 72 81 87 91 99 105 106 110 115 120 117 117 118
86 85 88 92 87 80 75 64 59 66 74 82 87 94 100 93 97 108 115 116 119 117
91 94 86 87 89 83 78 71 60 58 66 72 80 90 95 94 92 95 104 111 115 114
97 93 94 89 86 83 79 75 65 58 59 63 72 78 82 88 92 92 101 114 112 115
103 104 102 98 91 83 76 81 74 63 59 60 69 71 66 72 87 98 106 111 116 110
Wind_Direction_500mb
281 269 261 259 257 255 251 249 241 235 233 232 231 231 229 228 231 231 231 232 233 233
303 283 274 267 263 261 256 252 248 241 236 233 232 231 229 229 229 229 229 229 231 233
319 303 287 276 270 266 263 256 249 244 239 236 233 231 230 231 230 230 231 229 228 231
316 307 296 287 280 270 267 260 255 248 242 239 236 234 231 231 230 231 232 231 228 230
322 308 299 290 284 280 275 263 255 250 248 242 237 234 233 232 231 230 232 231 229 228
336 327 306 294 290 283 276 269 258 250 247 247 243 238 235 234 234 231 232 233 230 230
346 342 328 307 289 283 277 269 264 257 251 248 246 244 239 235 235 234 234 235 233 232
344 339 340 329 305 290 281 272 265 261 256 253 249 246 240 236 234 234 233 233 233 234
336 335 333 337 332 304 289 282 271 262 255 252 252 249 244 240 237 237 235 233 233 234
328 326 329 328 330 332 302 288 281 270 261 253 250 249 248 244 242 239 237 235 232 232
327 323 321 322 322 324 323 294 285 280 270 261 256 253 250 245 243 241 243 240 237 234
327 323 319 317 315 315 316 314 288 280 275 268 261 257 252 245 238 237 240 243 242 238
323 321 318 314 311 307 305 308 304 287 277 273 267 259 253 246 239 236 237 237 238 237
316 315 315 312 309 305 300 300 299 295 285 276 271 264 254 246 242 242 234 232 233 232
Wind_Speed_850mb
67 77 84 91 95 98 97 100 102 112 114 112 107 105 100 96 93 89 84 80 74 69
54 64 77 83 85 93 89 94 96 98 110 111 111 108 105 105 102 97 91 85 80 76
53 55 67 73 79 84 83 86 90 94 98 107 111 111 109 107 103 100 97 91 86 82
49 51 57 66 72 74 73 81 89 90 93 97 105 111 112 113 109 105 102 98 92 87
58 52 52 65 69 69 70 75 82 88 94 97 98 106 114 117 113 108 112 106 99 94
67 65 57 56 63 69 66 73 85 85 91 100 101 102 105 115 118 114 115 112 104 99
75 77 75 65 57 61 67 70 81 85 90 95 103 101 104 108 114 116 117 116 109 102
80 80 84 77 68 62 61 71 80 83 85 92 102 108 109 108 112 121 120 121 113 108
84 85 80 85 80 69 64 64 73 79 82 91 99 108 111 111 112 116 120 120 114 113
82 90 91 84 82 79 66 61 66 72 81 87 91 99 105 106 110 115 120 117 117 118
86 85 88 92 87 80 75 64 59 66 74 82 87 94 100 93 97 108 115 116 119 117
91 94 86 87 89 83 78 71 60 58 66 72 80 90 95 94 92 95 104 111 115 114
97 93 94 89 86 83 79 75 65 58 59 63 72 78 82 88 92 92 101 114 112 115
103 104 102 98 91 83 76 81 74 63 59 60 69 71 66 72 87 98 106 111 116 110
Wind_Direction_850mb
281 269 261 259 257 255 251 249 241 235 233 232 231 231 229 228 231 231 231 232 233 233
303 283 274 267 263 261 256 252 248 241 236 233 232 231 229 229 229 229 229 229 231 233
319 303 287 276 270 266 263 256 249 244 239 236 233 231 230 231 230 230 231 229 228 231
316 307 296 287 280 270 267 260 255 248 242 239 236 234 231 231 230 231 232 231 228 230
322 308 299 290 284 280 275 263 255 250 248 242 237 234 233 232 231 230 232 231 229 228
336 327 306 294 290 283 276 269 258 250 247 247 243 238 235 234 234 231 232 233 230 230
346 342 328 307 289 283 277 269 264 257 251 248 246 244 239 235 235 234 234 235 233 232
344 339 340 329 305 290 281 272 265 261 256 253 249 246 240 236 234 234 233 233 233 234
336 335 333 337 332 304 289 282 271 262 255 252 252 249 244 240 237 237 235 233 233 234
328 326 329 328 330 332 302 288 281 270 261 253 250 249 248 244 242 239 237 235 232 232
327 323 321 322 322 324 323 294 285 280 270 261 256 253 250 245 243 241 243 240 237 234
327 323 319 317 315 315 316 314 288 280 275 268 261 257 252 245 238 237 240 243 242 238
323 321 318 314 311 307 305 308 304 287 277 273 267 259 253 246 239 236 237 237 238 237
316 315 315 312 309 305 300 300 299 295 285 276 271 264 254 246 242 242 234 232 233 232